Starlink 31092

operational
NORAD ID: 58628 Int'l Des: 2023-203 Owner: SPXS Country: US Constellation: starlink
LEOCIRCULAR

Über Starlink 31092

Beschreibung wird geladen...

Live-Position

3D-Globus wird geladen...

Nächste Überflüge

Höhenverlauf

Altitude vs Time

uPlot chart will show altitude changes over time

Zweizeiliger Elementsatz

1 58628U 23203L 25351.83355087 .00000741 00000-0 36440-4 0 9997
2 58628 43.0014 169.2764 0001145 258.8763 101.1960 15.27591486111041
Epoch: 17. Dez. 2025 • Age: 18 hours

Aktueller Status

Höhe 495.3 km
Geschwindigkeit 7.62 km/s
Subsatellitenpunkt -42.39°S, 143.39°E
Startdatum 23. Dez. 2023
Alter 1.9 years
Typ internet

Technische Details

Klassifizierung Payload
Masse 730.00 kg
Trockenmasse 700.00 kg
Gesamtmasse 730.00 kg
Länge 0.30 m
Durchmesser 4.10 m
Spannweite 29.00 m
Form Box + pan
Hersteller SPXS
Bus-Typ Starlink V2M
Phasenstatus In Orbit
Besitzer/Staat SPXS/US

Große Konstellationen

Loading constellations...